Regional Weather Roundup
Issued by NWS Upton, NY

Current Version | Previous Version | Graphics & Text | Print | Product List | Glossary Off
Versions: 1 2 3 4 5 6 7 8 9 10 11 12 13 14 15 16 17 18 19 20 21 22 23 24 25 26 27 28 29 30 31 32 33 34 35 36 37 38 39 40 41 42 43 44 45 46 47 48 49 50

000
ASUS41 KOKX 260207
RWROKX

REGIONAL WEATHER ROUNDUP
NATIONAL WEATHER SERVICE NEW YORK NY
1000 PM EDT WED MAR 25 2015

NOTE: "FAIR" INDICATES FEW OR NO CLOUDS BELOW 12,000 FEET WITH NO
SIGNIFICANT WEATHER AND/OR OBSTRUCTIONS TO VISIBILITY.

NYZ071-072-176-178-NJZ106-104-260300-
NEW YORK CITY METRO AREA


CITY           SKY/WX    TMP DP  RH WIND       PRES   REMARKS
CENTRAL PARK   CLOUDY    42  37  82 S6        30.23F
LAGUARDIA APRT CLOUDY    42  38  85 SE6       30.21F
KENNEDY INTL   LGT RAIN  42  38  85 E6        30.23F
NEWARK/LIBERTY CLOUDY    40  37  89 CALM      30.22F
BRNX BOT. GARD   N/A     39  37  93 CALM      30.23F
TETERBORO      CLOUDY    40  37  89 SW3       30.21F
$$

NYZ177-179-078>081-260300-
LONG ISLAND NEW YORK

CITY           SKY/WX    TMP DP  RH WIND       PRES   REMARKS
FARMINGDALE    CLOUDY    41  39  93 SE7       30.22F
ISLIP          LGT RAIN  41  38  89 SE8       30.20F
SHIRLEY        LGT RAIN  41  38  89 S6        30.23F
WESTHAMPTON    LGT RAIN  41  38  89 S6        30.24F
MONTAUK POINT    N/A     41  37  86 VRB3      30.25F
$$

NYZ052-065-067-260300-
HUDSON VALLEY

CITY           SKY/WX    TMP DP  RH WIND       PRES   REMARKS
WHITE PLAINS   CLOUDY    36  34  92 SE5       30.19F FOG     WCI  32
NEWBURGH       CLOUDY    36  36 100 CALM      30.20F FOG
MONTGOMERY     CLOUDY    36  34  92 CALM      30.19S FOG
POUGHKEEPSIE   CLOUDY    37  34  89 CALM      30.20F FOG
ALBANY         CLOUDY    37  30  75 S22G28    30.11F WCI  26
$$

NJZ001-105-106-008-010-013-015-019>022-104-260300-
NEW JERSEY

CITY           SKY/WX    TMP DP  RH WIND       PRES   REMARKS
NEWARK/LIBERTY CLOUDY    40  37  89 CALM      30.22F
TETERBORO      CLOUDY    40  37  89 SW3       30.21F
CALDWELL       CLOUDY    38  35  89 CALM      30.22F FOG
MORRISTOWN     CLOUDY    37  36  93 CALM      30.23F FOG
SOMERVILLE     CLOUDY    39  36  89 CALM      30.20F FOG
SUSSEX         CLOUDY    36  34  92 CALM      30.19F FOG
ANDOVER          N/A     37  35  92 VRB3      30.18F
TRENTON        CLOUDY    39  37  92 NE3       30.19F
MILLVILLE      CLOUDY    45  42  89 CALM      30.18F
ATLANTIC CITY  CLOUDY    45  42  89 CALM      30.19F
WRIGHTSTOWN    CLOUDY    39  39 100 NE3       30.17F
TOMS RIVER     CLOUDY    41  39  93 N3        30.21F
BELMAR         CLOUDY    41  36  81 CALM      30.20F
$$

PAZ047>061-062-071-260300-
EASTERN PENNSYLVANIA

CITY           SKY/WX    TMP DP  RH WIND       PRES   REMARKS
PHILADELPHIA   CLOUDY    43  39  86 VRB6      30.20F
ALLENTOWN      CLOUDY    39  35  86 NE3       30.19F
SCRANTON       CLOUDY    40  32  73 SW7       30.14R
$$

CTZ002-004>006-009-010-012-RIZ004-006-007-MAZ004-011-015-260300-
SOUTHERN NEW ENGLAND
 IN CT

CITY           SKY/WX    TMP DP  RH WIND       PRES   REMARKS
BRADLEY INTL   DRIZZLE   37  33  85 SW9       30.21F WCI  30
HARTFORD       CLOUDY    36  34  92 S7        30.22F WCI  30
DANBURY        CLOUDY    35  31  85 S3        30.21F FOG
WTRBRY/OXFORD  CLOUDY    36  28  75 S6        30.21F WCI  31
BRIDGEPORT     CLOUDY    37  35  92 SE6       30.23F WCI  32
MERIDEN        CLOUDY    36  33  89 S3        30.22F FOG
NEW HAVEN      RAIN      37  33  85 VRB3      30.23F FOG
CHESTER        CLOUDY    36  34  93 CALM      30.23F
GROTON         CLOUDY    38  34  85 SE7       30.23F WCI  33
WILLIMANTIC    LGT RAIN  36  33  89 S6        30.22F WCI  31

 IN RI

CITY           SKY/WX    TMP DP  RH WIND       PRES   REMARKS
PROVIDENCE     LGT RAIN  36  33  89 S5        30.25F WCI  32
BLOCK ISLAND   CLOUDY    39  34  81 S12       30.24F WCI  32
WESTERLY       LGT RAIN  38  36  92 SE7       30.25F WCI  33

 IN MA

CITY           SKY/WX    TMP DP  RH WIND       PRES   REMARKS
BOSTON         CLOUDY    36  33  89 S12       30.23F WCI  28
WORCESTER      CLOUDY    33  31  92 SW13      30.16F WCI  24
WESTFIELD      CLOUDY    35  32  88 S8        30.19F WCI  29
PROVINCETOWN   CLOUDY    36  30  80 S10       30.27F WCI  28
NANTUCKET      CLOUDY    38  32  79 S14       30.27F WCI  30
$$

ANZ330-335-338-340-345-350-353-355-260300-
COASTAL MARINE OBSERVATIONS


STATION/POSITION TIME  SKY/WX   TEMP    WIND        PRES    VSBY  WAVE
                                AIR SEA DIR/SP/G                  HT/PER
                 (UTC)          (F)     (DEG/KT/KT) (MB)    (MI)  (FT/S)
NY HARB ENTRANCE 0150            40 38   60/  4/  6 1023.1          1/ 8
4S FIRE IS       0103               37                N/A           1/ 8
20S FIRE ISLAND  0050               38              1023.6          2/ 3
23SW MTP         0150                                 N/A           1/ 8
HUDSON CANYON    NOT AVBL
EXECUTION ROCKS  NOT AVBL
WESTERN LI SOUND NOT AVBL
CENTRAL LI SOUND NOT AVBL
EASTERN LI SOUND NOT AVBL
ROBBINS REEF     0100            39     170/  6/  7 1022.8
$$


>>>>>>>>>>>>>>>>>>>>>>>>>>>> KEY <<<<<<<<<<<<<<<<<<<<<<<<<<<
>                                                          <
>     SKY/WX - SKY CONDITION/PRESENT WEATHER               <
>     TMP    - TEMPERATURE IN FAHRENHEIT                   <
>     DP     - DEWPOINT IN FAHRENHEIT                      <
>     RH     - RELATIVE HUMIDITY IN PERCENT                <
>     WIND   - DIRECTION AND SPEED IN MPH                  <
>     PRES   - MEAN SEA LEVEL PRESSURE IN INCHES OF HG     <
>     WCI    - WIND CHILL INDEX                            <
>     VSB    - VISIBILITY IN MILES                         <
>     HX     - HEAT INDEX                                  <
>     TC     - TEMPERATURE IN CELSIUS                      <
>     VRB    - VARIABLE WIND DIRECTION                     <
>                                                          <
>>>>>>>>>>>>>>>>>>>>>>>>>>>> KEY <<<<<<<<<<<<<<<<<<<<<<<<<<<




USA.gov is the U.S. government's official web portal to all federal, state and local government web resources and services.